Time,TemperatureF,DewpointF,PressureIn,WindDirection,WindDirectionDegrees,WindSpeedMPH,WindSpeedGustMPH,Humidity,HourlyPrecipIn,Conditions,Clouds,dailyrainin,SolarRadiationWatts/m^2,SoftwareType,DateUTC
2013-03-21 00:00:00,67.2,61.2,29.88,NW,318,7.0,8.0,81,0.00,,BKN120,0.00,0.00,VWS V14.01,2013-03-21 04:00:00,
2013-03-21 00:05:00,67.1,61.1,29.88,NW,305,3.0,5.0,81,0.00,,BKN120,0.00,0.00,VWS V14.01,2013-03-21 04:05:00,
2013-03-21 00:10:00,67.0,61.0,29.88,WSW,249,5.0,5.0,81,0.00,,BKN120,0.00,0.00,VWS V14.01,2013-03-21 04:10:00,
2013-03-21 00:15:00,66.9,61.2,29.87,West,272,3.0,5.0,82,0.00,,BKN120,0.00,0.00,VWS V14.01,2013-03-21 04:15:00,
2013-03-21 00:20:00,66.8,61.1,29.87,WNW,296,6.0,6.0,82,0.00,,BKN120,0.00,0.00,VWS V14.01,2013-03-21 04:20:00,
2013-03-21 00:25:00,66.7,61.4,29.88,WNW,285,2.0,6.0,83,0.00,,BKN120,0.00,0.00,VWS V14.01,2013-03-21 04:25:00,
2013-03-21 00:30:00,66.7,61.4,29.87,West,265,2.0,4.0,83,0.00,,BKN120,0.00,0.00,VWS V14.01,2013-03-21 04:30:00,
2013-03-21 00:35:00,66.6,61.3,29.88,WNW,288,3.0,6.0,83,0.00,,BKN120,0.00,0.00,VWS V14.01,2013-03-21 04:35:00,
2013-03-21 00:40:00,66.5,61.5,29.88,West,273,2.0,6.0,84,0.00,,CLR,0.00,0.00,VWS V14.01,2013-03-21 04:40:00,
2013-03-21 00:45:00,66.4,61.4,29.88,West,280,4.0,7.0,84,0.00,,CLR,0.00,0.00,VWS V14.01,2013-03-21 04:45:00,
2013-03-21 00:50:00,66.3,61.3,29.88,WNW,294,4.0,4.0,84,0.00,,CLR,0.00,0.00,VWS V14.01,2013-03-21 04:50:00,
2013-03-21 00:55:00,66.2,61.6,29.88,WNW,298,2.0,4.0,85,0.00,,CLR,0.00,0.00,VWS V14.01,2013-03-21 04:55:00,
2013-03-21 01:00:00,66.1,61.5,29.88,WNW,291,2.0,6.0,85,0.00,,CLR,0.00,0.00,VWS V14.01,2013-03-21 05:00:00,
2013-03-21 01:05:00,66.2,61.6,29.88,WNW,301,3.0,7.0,85,0.00,,CLR,0.00,0.00,VWS V14.01,2013-03-21 05:05:00,
2013-03-21 01:10:00,66.1,61.8,29.88,WNW,300,5.0,6.0,86,0.00,,CLR,0.00,0.00,VWS V14.01,2013-03-21 05:10:00,
2013-03-21 01:15:00,66.1,61.5,29.88,West,280,3.0,4.0,85,0.00,,CLR,0.00,0.00,VWS V14.01,2013-03-21 05:15:00,
2013-03-21 01:20:00,66.0,61.4,29.88,WNW,294,1.0,5.0,85,0.00,,CLR,0.00,0.00,VWS V14.01,2013-03-21 05:20:00,
2013-03-21 01:25:00,65.9,61.6,29.87,NW,309,4.0,5.0,86,0.00,,CLR,0.00,0.00,VWS V14.01,2013-03-21 05:25:00,
2013-03-21 01:30:00,65.7,61.4,29.87,WNW,302,1.0,4.0,86,0.00,,CLR,0.00,0.00,VWS V14.01,2013-03-21 05:30:00,
2013-03-21 01:35:00,65.6,61.3,29.87,WNW,288,3.0,7.0,86,0.00,,CLR,0.00,0.00,VWS V14.01,2013-03-21 05:35:00,
2013-03-21 01:40:00,65.5,61.2,29.87,WNW,284,3.0,6.0,86,0.00,,FEW110,0.00,0.00,VWS V14.01,2013-03-21 05:40:00,
2013-03-21 01:45:00,65.5,61.5,29.87,West,281,3.0,6.0,87,0.00,,FEW110,0.00,0.00,VWS V14.01,2013-03-21 05:45:00,
2013-03-21 01:50:00,65.5,61.5,29.87,WNW,294,2.0,6.0,87,0.00,,FEW110,0.00,0.00,VWS V14.01,2013-03-21 05:50:00,
2013-03-21 01:55:00,65.4,61.4,29.87,WNW,300,3.0,5.0,87,0.00,,FEW110,0.00,0.00,VWS V14.01,2013-03-21 05:55:00,
2013-03-21 02:00:00,65.3,61.7,29.87,NW,305,7.0,7.0,88,0.00,,FEW110,0.00,0.00,VWS V14.01,2013-03-21 06:00:00,
2013-03-21 02:05:00,65.2,61.6,29.87,WNW,300,5.0,6.0,88,0.00,,FEW110,0.00,0.00,VWS V14.01,2013-03-21 06:05:00,
2013-03-21 02:10:00,65.1,61.5,29.87,NW,304,3.0,8.0,88,0.00,,FEW110,0.00,0.00,VWS V14.01,2013-03-21 06:10:00,
2013-03-21 02:15:00,65.0,61.7,29.87,NNW,328,3.0,7.0,89,0.00,,FEW110,0.00,0.00,VWS V14.01,2013-03-21 06:15:00,
2013-03-21 02:20:00,64.9,61.6,29.87,WNW,295,3.0,4.0,89,0.00,,FEW110,0.00,0.00,VWS V14.01,2013-03-21 06:20:00,
2013-03-21 02:25:00,64.9,61.6,29.86,WNW,300,3.0,5.0,89,0.00,,FEW110,0.00,0.00,VWS V14.01,2013-03-21 06:25:00,
2013-03-21 02:30:00,64.8,61.5,29.86,NW,315,3.0,4.0,89,0.00,,FEW110,0.00,0.00,VWS V14.01,2013-03-21 06:30:00,
2013-03-21 02:35:00,64.7,61.4,29.86,NW,316,6.0,6.0,89,0.00,,FEW110,0.00,0.00,VWS V14.01,2013-03-21 06:35:00,
2013-03-21 02:40:00,64.6,61.6,29.86,NW,320,2.0,7.0,90,0.00,,CLR,0.00,0.00,VWS V14.01,2013-03-21 06:40:00,
2013-03-21 02:45:00,64.5,61.5,29.86,NW,316,3.0,5.0,90,0.00,,CLR,0.00,0.00,VWS V14.01,2013-03-21 06:45:00,
2013-03-21 02:50:00,64.5,61.5,29.86,NW,316,3.0,7.0,90,0.00,,CLR,0.00,0.00,VWS V14.01,2013-03-21 06:50:00,
2013-03-21 02:55:00,64.5,61.5,29.86,WNW,299,5.0,8.0,90,0.00,,CLR,0.00,0.00,VWS V14.01,2013-03-21 06:55:00,
2013-03-21 03:00:00,64.4,61.4,29.86,NW,317,4.0,6.0,90,0.00,,CLR,0.00,0.00,VWS V14.01,2013-03-21 07:00:00,
2013-03-21 03:05:00,64.4,61.4,29.86,NW,316,4.0,7.0,90,0.00,,CLR,0.00,0.00,VWS V14.01,2013-03-21 07:05:00,
2013-03-21 03:10:00,64.4,61.7,29.86,NW,322,3.0,10.0,91,0.00,,CLR,0.00,0.00,VWS V14.01,2013-03-21 07:10:00,
2013-03-21 03:15:00,64.4,61.7,29.86,NW,321,3.0,6.0,91,0.00,,CLR,0.00,0.00,VWS V14.01,2013-03-21 07:15:00,
2013-03-21 03:20:00,64.3,61.6,29.86,NW,319,1.0,3.0,91,0.00,,CLR,0.00,0.00,VWS V14.01,2013-03-21 07:20:00,
2013-03-21 03:25:00,64.3,61.6,29.86,NW,320,1.0,5.0,91,0.00,,CLR,0.00,0.00,VWS V14.01,2013-03-21 07:25:00,
2013-03-21 03:30:00,64.2,61.5,29.86,NW,315,4.0,8.0,91,0.00,,CLR,0.00,0.00,VWS V14.01,2013-03-21 07:30:00,
2013-03-21 03:35:00,64.2,61.5,29.86,NW,315,2.0,6.0,91,0.00,,CLR,0.00,0.00,VWS V14.01,2013-03-21 07:35:00,
2013-03-21 03:40:00,64.2,61.5,29.86,NW,309,3.0,7.0,91,0.00,,FEW013,0.00,0.00,VWS V14.01,2013-03-21 07:40:00,
2013-03-21 03:45:00,64.1,61.4,29.86,NW,315,2.0,7.0,91,0.00,,FEW013,0.00,0.00,VWS V14.01,2013-03-21 07:45:00,
2013-03-21 03:50:00,64.1,61.4,29.86,WNW,296,4.0,7.0,91,0.00,,FEW013,0.00,0.00,VWS V14.01,2013-03-21 07:50:00,
2013-03-21 03:55:00,64.1,61.4,29.86,WNW,301,8.0,8.0,91,0.00,,FEW013,0.00,0.00,VWS V14.01,2013-03-21 07:55:00,
2013-03-21 04:00:00,64.1,61.4,29.86,WNW,292,4.0,5.0,91,0.00,,FEW013,0.00,0.00,VWS V14.01,2013-03-21 08:00:00,
2013-03-21 04:05:00,64.0,61.3,29.86,NW,316,4.0,6.0,91,0.00,,FEW013,0.00,0.00,VWS V14.01,2013-03-21 08:05:00,
2013-03-21 04:10:00,63.9,61.2,29.86,WNW,290,5.0,6.0,91,0.00,,FEW013,0.00,0.00,VWS V14.01,2013-03-21 08:10:00,
2013-03-21 04:15:00,63.9,61.5,29.86,NW,308,2.0,7.0,92,0.00,,FEW013,0.00,0.00,VWS V14.01,2013-03-21 08:15:00,
2013-03-21 04:20:00,63.8,61.4,29.86,NW,314,3.0,6.0,92,0.00,,FEW013,0.00,0.00,VWS V14.01,2013-03-21 08:20:00,
2013-03-21 04:25:00,63.8,61.4,29.86,NW,323,7.0,9.0,92,0.00,,FEW013,0.00,0.00,VWS V14.01,2013-03-21 08:25:00,
2013-03-21 04:30:00,63.7,61.3,29.86,NW,313,4.0,6.0,92,0.00,,FEW013,0.00,0.00,VWS V14.01,2013-03-21 08:30:00,
2013-03-21 04:35:00,63.6,61.2,29.86,WNW,294,5.0,7.0,92,0.00,,FEW013,0.00,0.00,VWS V14.01,2013-03-21 08:35:00,
2013-03-21 04:40:00,63.6,61.2,29.86,WNW,296,4.0,5.0,92,0.00,,SCT011,0.00,0.00,VWS V14.01,2013-03-21 08:40:00,
2013-03-21 04:45:00,63.6,61.2,29.86,WNW,284,4.0,4.0,92,0.00,,SCT011,0.00,0.00,VWS V14.01,2013-03-21 08:45:00,
2013-03-21 04:50:00,63.5,61.1,29.86,WNW,290,5.0,5.0,92,0.00,,SCT011,0.00,0.00,VWS V14.01,2013-03-21 08:50:00,
2013-03-21 04:55:00,63.5,61.1,29.86,NW,309,2.0,5.0,92,0.00,,SCT011,0.00,0.00,VWS V14.01,2013-03-21 08:55:00,
2013-03-21 05:00:00,63.4,61.0,29.86,NW,310,2.0,5.0,92,0.00,,SCT011,0.00,0.00,VWS V14.01,2013-03-21 09:00:00,
2013-03-21 05:05:00,63.4,61.0,29.86,NW,321,2.0,7.0,92,0.00,,SCT011,0.00,0.00,VWS V14.01,2013-03-21 09:05:00,
2013-03-21 05:10:00,63.4,61.0,29.86,NW,319,3.0,6.0,92,0.00,,SCT011,0.00,0.00,VWS V14.01,2013-03-21 09:10:00,
2013-03-21 05:15:00,63.3,60.9,29.86,NW,310,3.0,8.0,92,0.00,,SCT011,0.00,0.00,VWS V14.01,2013-03-21 09:15:00,
2013-03-21 05:20:00,63.3,60.9,29.86,NNW,344,6.0,6.0,92,0.00,,SCT011,0.00,0.00,VWS V14.01,2013-03-21 09:20:00,
2013-03-21 05:25:00,63.2,60.8,29.86,NNW,336,4.0,7.0,92,0.00,,SCT011,0.00,0.00,VWS V14.01,2013-03-21 09:25:00,
2013-03-21 05:30:00,63.2,60.8,29.87,NNW,330,4.0,10.0,92,0.00,,SCT011,0.00,0.00,VWS V14.01,2013-03-21 09:30:00,
2013-03-21 05:35:00,63.2,60.8,29.87,NW,314,4.0,7.0,92,0.00,,SCT011,0.00,0.00,VWS V14.01,2013-03-21 09:35:00,
2013-03-21 05:40:00,63.2,60.8,29.87,NNW,346,3.0,8.0,92,0.00,,CLR,0.00,0.00,VWS V14.01,2013-03-21 09:40:00,
2013-03-21 05:45:00,63.1,60.7,29.87,North,350,4.0,6.0,92,0.00,,CLR,0.00,0.00,VWS V14.01,2013-03-21 09:45:00,
2013-03-21 05:50:00,63.0,60.6,29.87,NW,304,3.0,6.0,92,0.00,,CLR,0.00,0.00,VWS V14.01,2013-03-21 09:50:00,
2013-03-21 05:55:00,63.0,60.6,29.87,NW,308,2.0,4.0,92,0.00,,CLR,0.00,0.00,VWS V14.01,2013-03-21 09:55:00,
2013-03-21 06:00:00,62.9,60.5,29.87,NNW,330,0.0,2.0,92,0.00,,CLR,0.00,0.00,VWS V14.01,2013-03-21 10:00:00,
2013-03-21 06:05:00,62.8,60.5,29.87,NW,317,1.0,5.0,92,0.00,,CLR,0.00,0.00,VWS V14.01,2013-03-21 10:05:00,
2013-03-21 06:10:00,62.7,60.3,29.88,WNW,295,2.0,5.0,92,0.00,,CLR,0.00,0.00,VWS V14.01,2013-03-21 10:10:00,
2013-03-21 06:15:00,62.7,60.3,29.88,WNW,294,1.0,4.0,92,0.00,,CLR,0.00,0.00,VWS V14.01,2013-03-21 10:15:00,
2013-03-21 06:20:00,62.6,60.2,29.88,WNW,290,0.0,4.0,92,0.00,,CLR,0.00,0.00,VWS V14.01,2013-03-21 10:20:00,
2013-03-21 06:25:00,62.6,60.2,29.89,NW,306,1.0,2.0,92,0.00,,CLR,0.00,0.00,VWS V14.01,2013-03-21 10:25:00,
2013-03-21 06:30:00,62.5,60.2,29.89,NW,306,1.0,2.0,92,0.00,,CLR,0.00,0.00,VWS V14.01,2013-03-21 10:30:00,
2013-03-21 06:35:00,62.5,60.2,29.89,NW,315,1.0,5.0,92,0.00,,CLR,0.00,0.00,VWS V14.01,2013-03-21 10:35:00,
2013-03-21 06:40:00,62.4,60.0,29.89,NW,316,2.0,3.0,92,0.00,,CLR,0.00,0.00,VWS V14.01,2013-03-21 10:40:00,
2013-03-21 06:45:00,62.3,60.0,29.89,NW,319,2.0,6.0,92,0.00,,CLR,0.00,0.00,VWS V14.01,2013-03-21 10:45:00,
2013-03-21 06:50:00,62.3,60.0,29.90,NNW,331,1.0,4.0,92,0.00,,CLR,0.00,0.00,VWS V14.01,2013-03-21 10:50:00,
2013-03-21 06:55:00,62.4,60.0,29.90,NNW,327,2.0,5.0,92,0.00,,CLR,0.00,0.00,VWS V14.01,2013-03-21 10:55:00,
2013-03-21 07:00:00,62.5,60.2,29.90,North,355,3.0,8.0,92,0.00,,CLR,0.00,0.00,VWS V14.01,2013-03-21 11:00:00,
2013-03-21 07:05:00,62.6,60.2,29.90,NNW,342,3.0,8.0,92,0.00,,CLR,0.00,0.00,VWS V14.01,2013-03-21 11:05:00,
2013-03-21 07:10:00,62.8,60.5,29.90,NNW,348,4.0,9.0,92,0.00,,CLR,0.00,0.00,VWS V14.01,2013-03-21 11:10:00,
2013-03-21 07:15:00,62.9,60.2,29.91,NNW,338,2.0,5.0,91,0.00,,CLR,0.00,0.00,VWS V14.01,2013-03-21 11:15:00,
2013-03-21 07:20:00,62.9,60.2,29.91,North,349,8.0,8.0,91,0.00,,CLR,0.00,0.00,VWS V14.01,2013-03-21 11:20:00,
2013-03-21 07:25:00,63.0,60.3,29.91,NNW,347,5.0,9.0,91,0.00,,CLR,0.00,0.00,VWS V14.01,2013-03-21 11:25:00,
2013-03-21 07:30:00,63.1,60.1,29.91,NNW,337,6.0,7.0,90,0.00,,CLR,0.00,5.00,VWS V14.01,2013-03-21 11:30:00,
2013-03-21 07:35:00,63.1,60.1,29.91,NNW,348,2.0,8.0,90,0.00,,CLR,0.00,7.00,VWS V14.01,2013-03-21 11:35:00,
2013-03-21 07:40:00,63.2,60.2,29.91,NNW,344,4.0,8.0,90,0.00,,CLR,0.00,14.00,VWS V14.01,2013-03-21 11:40:00,
2013-03-21 07:45:00,63.2,59.9,29.92,NNW,343,2.0,7.0,89,0.00,,BKN047,0.00,33.00,VWS V14.01,2013-03-21 11:45:00,
2013-03-21 07:50:00,63.3,60.3,29.92,NNW,345,2.0,7.0,90,0.00,,BKN047,0.00,58.00,VWS V14.01,2013-03-21 11:50:00,
2013-03-21 07:55:00,63.4,60.4,29.92,NW,319,2.0,5.0,90,0.00,,BKN047,0.00,58.00,VWS V14.01,2013-03-21 11:55:00,
2013-03-21 08:00:00,63.6,60.3,29.92,NNW,343,4.0,7.0,89,0.00,,BKN047,0.00,70.00,VWS V14.01,2013-03-21 12:00:00,
2013-03-21 08:05:00,63.7,60.4,29.92,NNW,348,2.0,6.0,89,0.00,,BKN047,0.00,70.00,VWS V14.01,2013-03-21 12:05:00,
2013-03-21 08:10:00,63.9,60.3,29.92,NNW,340,10.0,10.0,88,0.00,,BKN047,0.00,58.00,VWS V14.01,2013-03-21 12:10:00,
2013-03-21 08:15:00,64.0,60.4,29.92,North,5,6.0,10.0,88,0.00,,BKN047,0.00,62.00,VWS V14.01,2013-03-21 12:15:00,
2013-03-21 08:20:00,64.0,60.1,29.93,North,355,5.0,8.0,87,0.00,,BKN047,0.00,65.00,VWS V14.01,2013-03-21 12:20:00,
2013-03-21 08:25:00,64.1,60.2,29.93,NNW,332,3.0,6.0,87,0.00,,BKN047,0.00,98.00,VWS V14.01,2013-03-21 12:25:00,
2013-03-21 08:30:00,64.0,60.1,29.93,NW,325,6.0,8.0,87,0.00,,BKN047,0.00,79.00,VWS V14.01,2013-03-21 12:30:00,
2013-03-21 08:35:00,64.1,60.2,29.93,NNW,348,3.0,5.0,87,0.00,,BKN047,0.00,74.00,VWS V14.01,2013-03-21 12:35:00,
2013-03-21 08:40:00,64.1,60.2,29.93,NNW,331,4.0,6.0,87,0.00,,BKN047,0.00,104.00,VWS V14.01,2013-03-21 12:40:00,
2013-03-21 08:45:00,64.3,60.3,29.93,North,355,4.0,7.0,87,0.00,,BKN047,0.00,123.00,VWS V14.01,2013-03-21 12:45:00,
2013-03-21 08:50:00,64.5,60.2,29.94,NNW,329,5.0,7.0,86,0.00,,BKN047,0.00,102.00,VWS V14.01,2013-03-21 12:50:00,
2013-03-21 08:55:00,64.6,60.0,29.93,NW,321,4.0,7.0,85,0.00,,BKN047,0.00,76.00,VWS V14.01,2013-03-21 12:55:00,
2013-03-21 09:00:00,64.7,60.1,29.93,NNW,342,9.0,9.0,85,0.00,,BKN047,0.00,279.00,VWS V14.01,2013-03-21 13:00:00,
2013-03-21 09:05:00,64.9,60.3,29.94,North,350,4.0,8.0,85,0.00,,BKN047,0.00,120.00,VWS V14.01,2013-03-21 13:05:00,
2013-03-21 09:10:00,65.1,60.2,29.94,NNW,346,4.0,5.0,84,0.00,,BKN047,0.00,128.00,VWS V14.01,2013-03-21 13:10:00,
2013-03-21 09:15:00,65.5,60.2,29.95,NW,326,10.0,10.0,83,0.00,,BKN041,0.00,102.00,VWS V14.01,2013-03-21 13:15:00,
2013-03-21 09:20:00,65.8,59.8,29.95,North,5,4.0,5.0,81,0.00,,BKN041,0.00,134.00,VWS V14.01,2013-03-21 13:20:00,
2013-03-21 09:25:00,66.2,59.9,29.95,NNW,338,3.0,9.0,80,0.00,,BKN041,0.00,399.00,VWS V14.01,2013-03-21 13:25:00,
2013-03-21 09:30:00,66.6,59.9,29.95,North,5,2.0,6.0,79,0.00,,BKN041,0.00,399.00,VWS V14.01,2013-03-21 13:30:00,
2013-03-21 09:35:00,66.8,60.1,29.95,NNW,333,4.0,7.0,79,0.00,,BKN041,0.00,406.00,VWS V14.01,2013-03-21 13:35:00,
2013-03-21 09:40:00,67.1,60.0,29.95,NNW,347,6.0,8.0,78,0.00,,BKN041,0.00,417.00,VWS V14.01,2013-03-21 13:40:00,
2013-03-21 09:45:00,67.5,59.7,29.95,North,5,2.0,8.0,76,0.00,,SCT014,0.00,438.00,VWS V14.01,2013-03-21 13:45:00,
2013-03-21 09:50:00,67.8,59.6,29.95,North,360,3.0,5.0,75,0.00,,SCT014,0.00,454.00,VWS V14.01,2013-03-21 13:50:00,
2013-03-21 09:55:00,67.9,59.7,29.95,North,5,7.0,7.0,75,0.00,,SCT014,0.00,478.00,VWS V14.01,2013-03-21 13:55:00,
2013-03-21 10:00:00,68.0,57.9,29.95,North,5,4.0,8.0,70,0.00,,SCT014,0.00,494.00,VWS V14.01,2013-03-21 14:00:00,
2013-03-21 10:05:00,68.3,57.8,29.95,North,360,3.0,6.0,69,0.00,,SCT014,0.00,515.00,VWS V14.01,2013-03-21 14:05:00,
2013-03-21 10:10:00,68.7,58.1,29.95,North,5,2.0,5.0,69,0.00,,SCT014,0.00,531.00,VWS V14.01,2013-03-21 14:10:00,
2013-03-21 10:15:00,68.9,57.5,29.95,North,355,5.0,7.0,67,0.00,,SCT014,0.00,548.00,VWS V14.01,2013-03-21 14:15:00,
2013-03-21 10:20:00,69.3,57.9,29.95,NNW,345,5.0,14.0,67,0.00,,SCT014,0.00,568.00,VWS V14.01,2013-03-21 14:20:00,
2013-03-21 10:25:00,69.7,57.8,29.95,NNW,348,3.0,9.0,66,0.00,,SCT014,0.00,585.00,VWS V14.01,2013-03-21 14:25:00,
2013-03-21 10:30:00,70.1,58.2,29.95,North,350,4.0,8.0,66,0.00,,SCT014,0.00,598.00,VWS V14.01,2013-03-21 14:30:00,
2013-03-21 10:35:00,70.3,58.0,29.95,North,355,2.0,12.0,65,0.00,,SCT014,0.00,619.00,VWS V14.01,2013-03-21 14:35:00,
2013-03-21 10:40:00,70.6,57.8,29.95,NW,306,8.0,11.0,64,0.00,,SCT014,0.00,629.00,VWS V14.01,2013-03-21 14:40:00,
2013-03-21 10:45:00,70.8,58.0,29.95,North,360,4.0,6.0,64,0.00,,SCT016,0.00,649.00,VWS V14.01,2013-03-21 14:45:00,
2013-03-21 10:50:00,71.0,58.2,29.95,NNW,341,7.0,7.0,64,0.00,,SCT016,0.00,664.00,VWS V14.01,2013-03-21 14:50:00,
2013-03-21 10:55:00,71.2,56.6,29.95,North,360,4.0,7.0,60,0.00,,SCT016,0.00,682.00,VWS V14.01,2013-03-21 14:55:00,
2013-03-21 11:00:00,71.3,53.8,29.94,NNE,30,2.0,4.0,54,0.00,,SCT016,0.00,700.00,VWS V14.01,2013-03-21 15:00:00,
2013-03-21 11:05:00,71.4,52.9,29.95,NNE,32,2.0,4.0,52,0.00,,SCT016,0.00,712.00,VWS V14.01,2013-03-21 15:05:00,
2013-03-21 11:10:00,71.9,54.9,29.95,NNE,27,3.0,5.0,55,0.00,,SCT016,0.00,724.00,VWS V14.01,2013-03-21 15:10:00,
2013-03-21 11:15:00,72.4,55.8,29.95,North,5,2.0,9.0,56,0.00,,SCT016,0.00,740.00,VWS V14.01,2013-03-21 15:15:00,
2013-03-21 11:20:00,72.3,55.2,29.95,NNW,344,3.0,8.0,55,0.00,,SCT016,0.00,751.00,VWS V14.01,2013-03-21 15:20:00,
2013-03-21 11:25:00,72.8,53.6,29.95,North,360,5.0,5.0,51,0.00,,SCT016,0.00,775.00,VWS V14.01,2013-03-21 15:25:00,
2013-03-21 11:30:00,73.0,51.0,29.95,North,5,3.0,9.0,46,0.00,,SCT016,0.00,775.00,VWS V14.01,2013-03-21 15:30:00,
2013-03-21 11:35:00,73.1,52.8,29.95,NNW,347,1.0,5.0,49,0.00,,SCT016,0.00,793.00,VWS V14.01,2013-03-21 15:35:00,
2013-03-21 11:40:00,72.8,51.4,29.95,NNE,30,1.0,5.0,47,0.00,,SCT016,0.00,805.00,VWS V14.01,2013-03-21 15:40:00,
2013-03-21 11:45:00,72.6,52.4,29.95,NE,49,3.0,4.0,49,0.00,,CLR,0.00,810.00,VWS V14.01,2013-03-21 15:45:00,
2013-03-21 11:50:00,72.8,52.5,29.95,NNW,348,3.0,5.0,49,0.00,,CLR,0.00,821.00,VWS V14.01,2013-03-21 15:50:00,
2013-03-21 11:55:00,73.2,53.5,29.94,NW,322,1.0,6.0,50,0.00,,CLR,0.00,835.00,VWS V14.01,2013-03-21 15:55:00,
2013-03-21 12:00:00,73.8,55.6,29.94,NNW,344,1.0,8.0,53,0.00,,CLR,0.00,840.00,VWS V14.01,2013-03-21 16:00:00,
2013-03-21 12:05:00,74.8,55.5,29.94,North,360,2.0,7.0,51,0.00,,CLR,0.00,853.00,VWS V14.01,2013-03-21 16:05:00,
2013-03-21 12:10:00,74.6,51.3,29.94,NNE,13,1.0,4.0,44,0.00,,CLR,0.00,858.00,VWS V14.01,2013-03-21 16:10:00,
2013-03-21 12:15:00,74.0,51.9,29.94,NE,45,2.0,6.0,46,0.00,,CLR,0.00,863.00,VWS V14.01,2013-03-21 16:15:00,
2013-03-21 12:20:00,74.7,51.4,29.94,NNW,338,4.0,8.0,44,0.00,,CLR,0.00,872.00,VWS V14.01,2013-03-21 16:20:00,
2013-03-21 12:21:00,74.0,51.9,29.94,NNW,343,3.0,6.0,46,0.00,,CLR,0.00,867.00,VWS V14.01,2013-03-21 16:21:00,
2013-03-21 12:25:00,74.9,51.5,29.94,NNW,338,3.0,8.0,44,0.00,,CLR,0.00,881.00,VWS V14.01,2013-03-21 16:25:00,
2013-03-21 12:30:00,75.5,51.5,29.94,NNW,338,4.0,9.0,43,0.00,,CLR,0.00,889.00,VWS V14.01,2013-03-21 16:30:00,
2013-03-21 12:35:00,76.2,50.8,29.94,NNW,338,3.0,7.0,41,0.00,,CLR,0.00,897.00,VWS V14.01,2013-03-21 16:35:00,
2013-03-21 12:40:00,75.7,49.7,29.94,NNE,22,4.0,10.0,40,0.00,,CLR,0.00,902.00,VWS V14.01,2013-03-21 16:40:00,
2013-03-21 12:45:00,74.8,50.8,29.94,NNE,22,3.0,7.0,43,0.00,,CLR,0.00,908.00,VWS V14.01,2013-03-21 16:45:00,
2013-03-21 12:50:00,75.0,48.4,29.94,NE,45,2.0,6.0,39,0.00,,CLR,0.00,912.00,VWS V14.01,2013-03-21 16:50:00,
2013-03-21 12:55:00,75.5,51.5,29.93,NNE,22,2.0,7.0,43,0.00,,CLR,0.00,918.00,VWS V14.01,2013-03-21 16:55:00,
2013-03-21 13:00:00,76.5,51.7,29.93,NW,315,2.0,6.0,42,0.00,,CLR,0.00,924.00,VWS V14.01,2013-03-21 17:00:00,
2013-03-21 13:05:00,76.6,49.8,29.93,North,0,4.0,7.0,39,0.00,,CLR,0.00,928.00,VWS V14.01,2013-03-21 17:05:00,
2013-03-21 13:10:00,76.9,50.8,29.93,NNW,338,4.0,12.0,40,0.00,,CLR,0.00,933.00,VWS V14.01,2013-03-21 17:10:00,
2013-03-21 13:15:00,77.3,50.4,29.92,WNW,292,4.0,9.0,39,0.00,,CLR,0.00,936.00,VWS V14.01,2013-03-21 17:15:00,
2013-03-21 13:20:00,77.5,49.2,29.92,NNW,338,4.0,8.0,37,0.00,,CLR,0.00,938.00,VWS V14.01,2013-03-21 17:20:00,
2013-03-21 13:25:00,77.0,50.9,29.92,WNW,292,3.0,5.0,40,0.00,,CLR,0.00,940.00,VWS V14.01,2013-03-21 17:25:00,
2013-03-21 13:30:00,77.7,50.8,29.92,NNW,338,3.0,8.0,39,0.00,,CLR,0.00,942.00,VWS V14.01,2013-03-21 17:30:00,
2013-03-21 13:35:00,77.5,51.3,29.92,North,0,3.0,8.0,40,0.00,,CLR,0.00,941.00,VWS V14.01,2013-03-21 17:35:00,
2013-03-21 13:40:00,77.7,51.5,29.92,NNW,338,5.0,9.0,40,0.00,,CLR,0.00,943.00,VWS V14.01,2013-03-21 17:40:00,
2013-03-21 13:45:00,77.5,49.2,29.92,NNW,338,4.0,10.0,37,0.00,,CLR,0.00,734.00,VWS V14.01,2013-03-21 17:45:00,
2013-03-21 13:50:00,77.9,50.3,29.92,NNW,338,5.0,11.0,38,0.00,,CLR,0.00,986.00,VWS V14.01,2013-03-21 17:50:00,
2013-03-21 13:55:00,77.5,50.6,29.92,NNW,338,3.0,8.0,39,0.00,,CLR,0.00,1009.00,VWS V14.01,2013-03-21 17:55:00,
2013-03-21 14:00:00,78.0,50.4,29.91,North,0,4.0,10.0,38,0.00,,CLR,0.00,973.00,VWS V14.01,2013-03-21 18:00:00,
2013-03-21 14:05:00,78.7,51.0,29.91,NNW,338,6.0,12.0,38,0.00,,CLR,0.00,1002.00,VWS V14.01,2013-03-21 18:05:00,
2013-03-21 14:10:00,79.1,50.6,29.91,NW,315,6.0,10.0,37,0.00,,CLR,0.00,1010.00,VWS V14.01,2013-03-21 18:10:00,
2013-03-21 14:15:00,79.0,49.8,29.91,NNW,338,4.0,9.0,36,0.00,,CLR,0.00,963.00,VWS V14.01,2013-03-21 18:15:00,
2013-03-21 14:20:00,79.0,49.8,29.90,NNW,338,5.0,9.0,36,0.00,,CLR,0.00,949.00,VWS V14.01,2013-03-21 18:20:00,
2013-03-21 14:25:00,79.0,50.5,29.90,NW,315,5.0,12.0,37,0.00,,CLR,0.00,947.00,VWS V14.01,2013-03-21 18:25:00,
2013-03-21 14:30:00,78.5,50.8,29.90,NNW,338,4.0,10.0,38,0.00,,CLR,0.00,929.00,VWS V14.01,2013-03-21 18:30:00,
2013-03-21 14:35:00,78.2,50.5,29.90,North,0,3.0,8.0,38,0.00,,CLR,0.00,939.00,VWS V14.01,2013-03-21 18:35:00,
2013-03-21 14:40:00,78.2,51.2,29.90,North,0,4.0,9.0,39,0.00,,CLR,0.00,862.00,VWS V14.01,2013-03-21 18:40:00,
2013-03-21 14:45:00,78.1,52.5,29.90,NNW,338,4.0,9.0,41,0.00,,CLR,0.00,913.00,VWS V14.01,2013-03-21 18:45:00,
2013-03-21 14:50:00,78.4,50.7,29.90,NNW,338,5.0,10.0,38,0.00,,CLR,0.00,913.00,VWS V14.01,2013-03-21 18:50:00,
2013-03-21 14:55:00,78.6,52.3,29.90,NW,315,5.0,8.0,40,0.00,,CLR,0.00,900.00,VWS V14.01,2013-03-21 18:55:00,
2013-03-21 15:00:00,78.7,50.3,29.90,NNW,338,6.0,12.0,37,0.00,,CLR,0.00,926.00,VWS V14.01,2013-03-21 19:00:00,
2013-03-21 15:05:00,78.0,51.1,29.89,NNW,338,5.0,10.0,39,0.00,,CLR,0.00,870.00,VWS V14.01,2013-03-21 19:05:00,
2013-03-21 15:10:00,79.0,52.0,29.89,NW,315,6.0,11.0,39,0.00,,CLR,0.00,965.00,VWS V14.01,2013-03-21 19:10:00,
2013-03-21 15:15:00,79.0,51.2,29.89,NNW,338,5.0,9.0,38,0.00,,CLR,0.00,827.00,VWS V14.01,2013-03-21 19:15:00,
2013-03-21 15:20:00,79.2,50.0,29.89,NNW,338,5.0,11.0,36,0.00,,CLR,0.00,848.00,VWS V14.01,2013-03-21 19:20:00,
2013-03-21 15:27:00,79.2,50.0,29.89,NNW,338,5.0,11.0,36,0.00,,CLR,0.00,848.00,VWS V14.01,2013-03-21 19:27:00,
2013-03-21 15:30:00,78.4,51.4,29.89,North,355,4.0,9.0,39,0.00,,CLR,0.00,636.00,VWS V14.01,2013-03-21 19:30:00,
2013-03-21 15:32:00,78.0,51.1,29.89,North,5,2.0,2.0,39,0.00,,FEW065,0.00,441.00,VWS V14.01,2013-03-21 19:32:00,
2013-03-21 15:35:00,78.0,50.4,29.89,NNW,331,7.0,11.0,38,0.00,,CLR,0.00,380.00,VWS V14.01,2013-03-21 19:35:00,
2013-03-21 15:37:00,77.6,51.4,29.89,WNW,288,7.0,7.0,40,0.00,,FEW065,0.00,503.00,VWS V14.01,2013-03-21 19:37:00,
2013-03-21 15:40:00,77.8,50.9,29.89,NW,311,8.0,11.0,39,0.00,,CLR,0.00,904.00,VWS V14.01,2013-03-21 19:40:00,
2013-03-21 15:42:00,78.4,52.1,29.89,NW,324,6.0,10.0,40,0.00,,CLR,0.00,830.00,VWS V14.01,2013-03-21 19:42:00,
2013-03-21 15:45:00,78.7,51.7,29.89,NW,312,5.0,10.0,39,0.00,,CLR,0.00,814.00,VWS V14.01,2013-03-21 19:45:00,
2013-03-21 15:47:00,78.9,50.4,29.89,NNW,341,4.0,13.0,37,0.00,,CLR,0.00,800.00,VWS V14.01,2013-03-21 19:47:00,
2013-03-21 15:50:00,79.0,51.2,29.89,NW,304,3.0,8.0,38,0.00,,CLR,0.00,791.00,VWS V14.01,2013-03-21 19:50:00,
2013-03-21 15:52:00,79.1,52.0,29.90,NNW,346,7.0,9.0,39,0.00,,CLR,0.00,770.00,VWS V14.01,2013-03-21 19:52:00,
2013-03-21 15:55:00,79.0,51.2,29.89,NW,312,5.0,10.0,38,0.00,,CLR,0.00,789.00,VWS V14.01,2013-03-21 19:55:00,
2013-03-21 15:57:00,78.4,51.4,29.89,North,11,2.0,8.0,39,0.00,,CLR,0.00,775.00,VWS V14.01,2013-03-21 19:57:00,
2013-03-21 16:00:00,78.2,50.5,29.89,NNE,26,2.0,3.0,38,0.00,,CLR,0.00,775.00,VWS V14.01,2013-03-21 20:00:00,
2013-03-21 16:02:00,77.8,49.5,29.89,NE,45,1.0,3.0,37,0.00,,CLR,0.00,592.00,VWS V14.01,2013-03-21 20:02:00,
2013-03-21 16:05:00,77.6,50.7,29.89,NNW,335,0.0,5.0,39,0.00,,CLR,0.00,784.00,VWS V14.01,2013-03-21 20:05:00,
2013-03-21 16:07:00,78.0,51.8,29.89,NW,315,6.0,7.0,40,0.00,,CLR,0.00,772.00,VWS V14.01,2013-03-21 20:07:00,
2013-03-21 16:10:00,78.2,51.2,29.89,NNW,347,5.0,6.0,39,0.00,,CLR,0.00,731.00,VWS V14.01,2013-03-21 20:10:00,
2013-03-21 16:12:00,78.4,49.3,29.89,NW,308,2.0,6.0,36,0.00,,CLR,0.00,710.00,VWS V14.01,2013-03-21 20:12:00,
2013-03-21 16:15:00,78.1,51.2,29.89,NNW,348,2.0,8.0,39,0.00,,CLR,0.00,705.00,VWS V14.01,2013-03-21 20:15:00,
2013-03-21 16:17:00,77.9,51.7,29.89,North,355,4.0,6.0,40,0.00,,CLR,0.00,691.00,VWS V14.01,2013-03-21 20:17:00,
2013-03-21 16:20:00,77.9,50.3,29.89,North,9,4.0,8.0,38,0.00,,CLR,0.00,680.00,VWS V14.01,2013-03-21 20:20:00,
2013-03-21 16:22:00,77.7,50.8,29.89,NNW,344,0.0,6.0,39,0.00,,CLR,0.00,689.00,VWS V14.01,2013-03-21 20:22:00,
2013-03-21 16:25:00,77.7,50.1,29.89,NNW,338,2.0,4.0,38,0.00,,CLR,0.00,675.00,VWS V14.01,2013-03-21 20:25:00,
2013-03-21 16:30:00,78.1,51.2,29.89,NW,315,5.0,8.0,39,0.00,,CLR,0.00,668.00,VWS V14.01,2013-03-21 20:30:00,
2013-03-21 16:35:00,78.2,51.2,29.89,NNW,338,5.0,10.0,39,0.00,,CLR,0.00,655.00,VWS V14.01,2013-03-21 20:35:00,
2013-03-21 16:40:00,78.0,51.8,29.89,North,0,4.0,11.0,40,0.00,,CLR,0.00,634.00,VWS V14.01,2013-03-21 20:40:00,
2013-03-21 16:45:00,77.9,51.0,29.89,NNW,338,5.0,9.0,39,0.00,,CLR,0.00,619.00,VWS V14.01,2013-03-21 20:45:00,
2013-03-21 16:50:00,77.9,51.0,29.89,NNW,338,5.0,9.0,39,0.00,,CLR,0.00,603.00,VWS V14.01,2013-03-21 20:50:00,
2013-03-21 16:54:00,77.9,51.0,29.89,NNW,338,5.0,9.0,39,0.00,,CLR,0.00,603.00,VWS V14.01,2013-03-21 20:54:00,
2013-03-21 16:55:00,77.8,50.2,29.90,NW,315,6.0,6.0,38,0.00,,CLR,0.00,578.00,VWS V14.01,2013-03-21 20:55:00,
2013-03-21 16:59:00,77.5,50.6,29.90,NNW,336,4.0,8.0,39,0.00,,CLR,0.00,559.00,VWS V14.01,2013-03-21 20:59:00,
2013-03-21 17:00:00,77.5,50.6,29.90,NNW,329,6.0,8.0,39,0.00,,CLR,0.00,559.00,VWS V14.01,2013-03-21 21:00:00,
2013-03-21 17:04:00,77.5,50.6,29.90,NW,326,5.0,8.0,39,0.00,,SCT065,0.00,540.00,VWS V14.01,2013-03-21 21:04:00,
2013-03-21 17:05:00,77.5,50.6,29.90,NNW,346,6.0,8.0,39,0.00,,CLR,0.00,543.00,VWS V14.01,2013-03-21 21:05:00,
2013-03-21 17:09:00,77.3,51.1,29.90,NW,319,4.0,11.0,40,0.00,,SCT065,0.00,522.00,VWS V14.01,2013-03-21 21:09:00,
2013-03-21 17:10:00,77.3,51.1,29.90,WNW,282,6.0,11.0,40,0.00,,CLR,0.00,524.00,VWS V14.01,2013-03-21 21:10:00,
2013-03-21 17:14:00,77.2,51.7,29.90,NNW,333,4.0,7.0,41,0.00,,SCT065,0.00,506.00,VWS V14.01,2013-03-21 21:14:00,
2013-03-21 17:15:00,77.2,51.7,29.90,NNW,333,3.0,7.0,41,0.00,,CLR,0.00,506.00,VWS V14.01,2013-03-21 21:15:00,
2013-03-21 17:19:00,77.1,50.9,29.90,NW,325,7.0,7.0,40,0.00,,SCT065,0.00,487.00,VWS V14.01,2013-03-21 21:19:00,
2013-03-21 17:20:00,77.1,50.9,29.90,NNW,338,7.0,7.0,40,0.00,,CLR,0.00,487.00,VWS V14.01,2013-03-21 21:20:00,
2013-03-21 17:24:00,76.9,50.8,29.90,NW,319,9.0,10.0,40,0.00,,SCT065,0.00,468.00,VWS V14.01,2013-03-21 21:24:00,
2013-03-21 17:25:00,76.9,50.8,29.90,NW,310,8.0,8.0,40,0.00,,CLR,0.00,468.00,VWS V14.01,2013-03-21 21:25:00,
2013-03-21 17:29:00,76.5,50.4,29.90,WNW,299,7.0,9.0,40,0.00,,SCT065,0.00,450.00,VWS V14.01,2013-03-21 21:29:00,
2013-03-21 17:30:00,76.5,50.4,29.90,NW,312,7.0,9.0,40,0.00,,CLR,0.00,450.00,VWS V14.01,2013-03-21 21:30:00,
2013-03-21 17:34:00,76.0,50.0,29.90,NNW,333,4.0,8.0,40,0.00,,SCT065,0.00,432.00,VWS V14.01,2013-03-21 21:34:00,
2013-03-21 17:35:00,76.0,50.0,29.90,NNW,335,7.0,8.0,40,0.00,,CLR,0.00,432.00,VWS V14.01,2013-03-21 21:35:00,
2013-03-21 17:39:00,75.7,50.4,29.90,NW,315,8.0,9.0,41,0.00,,SCT065,0.00,411.00,VWS V14.01,2013-03-21 21:39:00,
2013-03-21 17:40:00,75.8,50.5,29.90,NW,319,6.0,9.0,41,0.00,,CLR,0.00,411.00,VWS V14.01,2013-03-21 21:40:00,
2013-03-21 17:44:00,75.6,49.6,29.90,NNW,334,7.0,9.0,40,0.00,,CLR,0.00,390.00,VWS V14.01,2013-03-21 21:44:00,
2013-03-21 17:45:00,75.6,49.6,29.90,NW,316,6.0,9.0,40,0.00,,CLR,0.00,394.00,VWS V14.01,2013-03-21 21:45:00,
2013-03-21 17:49:00,75.3,50.7,29.90,NNW,336,1.0,8.0,42,0.00,,CLR,0.00,373.00,VWS V14.01,2013-03-21 21:49:00,
2013-03-21 17:50:00,75.3,50.7,29.90,NNW,336,1.0,8.0,42,0.00,,CLR,0.00,373.00,VWS V14.01,2013-03-21 21:50:00,
2013-03-21 17:54:00,75.6,50.3,29.90,NNW,342,4.0,5.0,41,0.00,,CLR,0.00,353.00,VWS V14.01,2013-03-21 21:54:00,
2013-03-21 17:55:00,75.5,50.2,29.90,NNW,336,4.0,5.0,41,0.00,,CLR,0.00,353.00,VWS V14.01,2013-03-21 21:55:00,
2013-03-21 17:59:00,75.3,50.0,29.91,NNW,329,4.0,9.0,41,0.00,,CLR,0.00,332.00,VWS V14.01,2013-03-21 21:59:00,
2013-03-21 18:00:00,75.3,49.3,29.91,NNW,344,5.0,9.0,40,0.00,,CLR,0.00,332.00,VWS V14.01,2013-03-21 22:00:00,
2013-03-21 18:04:00,75.1,49.8,29.91,North,5,3.0,6.0,41,0.00,,CLR,0.00,309.00,VWS V14.01,2013-03-21 22:04:00,
2013-03-21 18:05:00,75.1,49.8,29.91,North,5,4.0,6.0,41,0.00,,CLR,0.00,309.00,VWS V14.01,2013-03-21 22:05:00,
2013-03-21 18:10:00,74.7,48.8,29.90,NNW,338,5.0,9.0,40,0.00,,CLR,0.00,299.00,VWS V14.01,2013-03-21 22:10:00,
2013-03-21 18:15:00,74.6,49.4,29.90,NNW,338,3.0,6.0,41,0.00,,CLR,0.00,280.00,VWS V14.01,2013-03-21 22:15:00,
2013-03-21 18:20:00,74.4,49.2,29.90,NNW,338,5.0,8.0,41,0.00,,CLR,0.00,266.00,VWS V14.01,2013-03-21 22:20:00,
2013-03-21 18:25:00,74.3,49.8,29.90,NNW,338,3.0,7.0,42,0.00,,CLR,0.00,239.00,VWS V14.01,2013-03-21 22:25:00,
2013-03-21 18:30:00,74.0,48.8,29.91,North,0,3.0,7.0,41,0.00,,CLR,0.00,216.00,VWS V14.01,2013-03-21 22:30:00,
2013-03-21 18:35:00,73.9,49.4,29.91,NNW,338,3.0,7.0,42,0.00,,CLR,0.00,195.00,VWS V14.01,2013-03-21 22:35:00,
2013-03-21 18:40:00,73.5,49.0,29.91,NNW,338,3.0,6.0,42,0.00,,CLR,0.00,174.00,VWS V14.01,2013-03-21 22:40:00,
2013-03-21 18:45:00,73.5,48.4,29.91,NNW,338,3.0,6.0,41,0.00,,CLR,0.00,152.00,VWS V14.01,2013-03-21 22:45:00,
2013-03-21 18:50:00,73.1,48.7,29.92,NNW,338,3.0,6.0,42,0.00,,CLR,0.00,129.00,VWS V14.01,2013-03-21 22:50:00,
2013-03-21 18:55:00,72.8,48.4,29.92,NNW,338,4.0,9.0,42,0.00,,CLR,0.00,109.00,VWS V14.01,2013-03-21 22:55:00,
2013-03-21 19:00:00,72.5,48.1,29.92,NNW,338,5.0,8.0,42,0.00,,CLR,0.00,83.00,VWS V14.01,2013-03-21 23:00:00,
2013-03-21 19:05:00,72.1,48.4,29.92,NNW,338,3.0,7.0,43,0.00,,CLR,0.00,31.00,VWS V14.01,2013-03-21 23:05:00,
2013-03-21 19:10:00,71.8,48.1,29.92,NNW,338,2.0,6.0,43,0.00,,CLR,0.00,27.00,VWS V14.01,2013-03-21 23:10:00,
2013-03-21 19:15:00,71.4,47.8,29.92,NNW,338,2.0,5.0,43,0.00,,CLR,0.00,23.00,VWS V14.01,2013-03-21 23:15:00,
2013-03-21 19:20:00,71.0,48.0,29.92,NNE,22,2.0,5.0,44,0.00,,CLR,0.00,19.00,VWS V14.01,2013-03-21 23:20:00,
2013-03-21 19:25:00,70.6,48.2,29.92,NNE,22,2.0,3.0,45,0.00,,CLR,0.00,14.00,VWS V14.01,2013-03-21 23:25:00,
2013-03-21 19:30:00,70.3,48.0,29.92,NNW,338,2.0,4.0,45,0.00,,CLR,0.00,10.00,VWS V14.01,2013-03-21 23:30:00,
2013-03-21 19:35:00,70.1,47.8,29.92,NNW,338,1.0,3.0,45,0.00,,CLR,0.00,6.00,VWS V14.01,2013-03-21 23:35:00,
2013-03-21 19:42:00,70.1,47.8,29.92,NNW,338,1.0,3.0,45,0.00,,CLR,0.00,6.00,VWS V14.01,2013-03-21 23:42:00,
2013-03-21 19:45:00,69.5,47.8,29.92,North,355,0.0,0.0,46,0.00,,CLR,0.00,0.00,VWS V14.01,2013-03-21 23:45:00,
2013-03-21 19:47:00,69.3,47.7,29.93,North,355,0.0,1.0,46,0.00,,CLR,0.00,0.00,VWS V14.01,2013-03-21 23:47:00,
2013-03-21 19:50:00,69.2,47.0,29.93,North,355,0.0,1.0,45,0.00,,CLR,0.00,0.00,VWS V14.01,2013-03-21 23:50:00,
2013-03-21 19:52:00,69.1,46.9,29.93,North,360,0.0,0.0,45,0.00,,CLR,0.00,0.00,VWS V14.01,2013-03-21 23:52:00,
2013-03-21 19:55:00,69.1,46.9,29.93,North,360,0.0,0.0,45,0.00,,CLR,0.00,0.00,VWS V14.01,2013-03-21 23:55:00,
2013-03-21 19:57:00,69.1,47.5,29.93,North,360,1.0,2.0,46,0.00,,CLR,0.00,0.00,VWS V14.01,2013-03-21 23:57:00,
2013-03-21 20:00:00,69.1,47.5,29.93,NNE,32,2.0,3.0,46,0.00,,CLR,0.00,0.00,VWS V14.01,2013-03-22 00:00:00,
2013-03-21 20:02:00,68.9,47.3,29.93,NNE,32,1.0,1.0,46,0.00,,CLR,0.00,0.00,VWS V14.01,2013-03-22 00:02:00,
2013-03-21 20:05:00,68.8,47.8,29.93,NNE,32,0.0,1.0,47,0.00,,CLR,0.00,0.00,VWS V14.01,2013-03-22 00:05:00,
2013-03-21 20:07:00,68.6,48.2,29.93,NNE,32,0.0,2.0,48,0.00,,FEW080,0.00,0.00,VWS V14.01,2013-03-22 00:07:00,
2013-03-21 20:10:00,68.5,48.1,29.93,NNE,32,0.0,1.0,48,0.00,,CLR,0.00,0.00,VWS V14.01,2013-03-22 00:10:00,
2013-03-21 20:12:00,68.3,51.5,29.93,ESE,105,3.0,3.0,55,0.00,,FEW080,0.00,0.00,VWS V14.01,2013-03-22 00:12:00,
2013-03-21 20:15:00,68.3,52.0,29.93,NE,55,3.0,3.0,56,0.00,,CLR,0.00,0.00,VWS V14.01,2013-03-22 00:15:00,
2013-03-21 20:20:00,68.1,53.7,29.93,NE,41,1.0,4.0,60,0.00,,CLR,0.00,0.00,VWS V14.01,2013-03-22 00:20:00,
2013-03-21 20:25:00,68.1,53.7,29.93,North,360,1.0,1.0,60,0.00,,CLR,0.00,0.00,VWS V14.01,2013-03-22 00:25:00,
2013-03-21 20:30:00,67.8,53.9,29.93,NE,41,1.0,1.0,61,0.00,,CLR,0.00,0.00,VWS V14.01,2013-03-22 00:30:00,
2013-03-21 20:35:00,67.6,53.7,29.93,NE,41,0.0,0.0,61,0.00,,CLR,0.00,0.00,VWS V14.01,2013-03-22 00:35:00,
2013-03-21 20:40:00,67.3,54.3,29.93,NE,40,1.0,1.0,63,0.00,,CLR,0.00,0.00,VWS V14.01,2013-03-22 00:40:00,
2013-03-21 20:45:00,67.0,54.0,29.94,East,93,1.0,3.0,63,0.00,,CLR,0.00,0.00,VWS V14.01,2013-03-22 00:45:00,
2013-03-21 20:50:00,66.8,54.2,29.94,East,93,0.0,2.0,64,0.00,,CLR,0.00,0.00,VWS V14.01,2013-03-22 00:50:00,
2013-03-21 20:55:00,66.6,54.1,29.94,East,93,1.0,1.0,64,0.00,,CLR,0.00,0.00,VWS V14.01,2013-03-22 00:55:00,
2013-03-21 21:00:00,66.5,54.4,29.94,East,93,0.0,0.0,65,0.00,,CLR,0.00,0.00,VWS V14.01,2013-03-22 01:00:00,
2013-03-21 21:02:00,66.4,54.3,29.94,East,93,0.0,0.0,65,0.00,,FEW080,0.00,0.00,VWS V14.01,2013-03-22 01:02:00,
2013-03-21 21:05:00,66.4,54.3,29.94,East,93,0.0,0.0,65,0.00,,CLR,0.00,0.00,VWS V14.01,2013-03-22 01:05:00,
2013-03-21 21:07:00,66.3,54.2,29.94,East,92,0.0,0.0,65,0.00,,FEW080,0.00,0.00,VWS V14.01,2013-03-22 01:07:00,
2013-03-21 21:10:00,66.2,54.1,29.95,East,92,0.0,0.0,65,0.00,,CLR,0.00,0.00,VWS V14.01,2013-03-22 01:10:00,
2013-03-21 21:12:00,66.1,54.0,29.95,East,92,0.0,0.0,65,0.00,,FEW080,0.00,0.00,VWS V14.01,2013-03-22 01:12:00,
2013-03-21 21:15:00,66.1,54.0,29.95,East,92,0.0,0.0,65,0.00,,CLR,0.00,0.00,VWS V14.01,2013-03-22 01:15:00,
2013-03-21 21:17:00,66.0,54.3,29.95,East,92,0.0,0.0,66,0.00,,FEW080,0.00,0.00,VWS V14.01,2013-03-22 01:17:00,
2013-03-21 21:20:00,65.9,54.2,29.95,East,92,0.0,0.0,66,0.00,,CLR,0.00,0.00,VWS V14.01,2013-03-22 01:20:00,
2013-03-21 21:22:00,65.8,54.5,29.95,East,92,0.0,0.0,67,0.00,,FEW080,0.00,0.00,VWS V14.01,2013-03-22 01:22:00,
2013-03-21 21:25:00,65.7,54.5,29.95,East,92,1.0,1.0,67,0.00,,CLR,0.00,0.00,VWS V14.01,2013-03-22 01:25:00,
2013-03-21 21:27:00,65.5,54.3,29.95,East,92,0.0,2.0,67,0.00,,FEW080,0.00,0.00,VWS V14.01,2013-03-22 01:27:00,
2013-03-21 21:30:00,65.5,54.3,29.95,East,92,0.0,1.0,67,0.00,,CLR,0.00,0.00,VWS V14.01,2013-03-22 01:30:00,
2013-03-21 21:32:00,65.3,54.1,29.95,East,92,0.0,0.0,67,0.00,,FEW080,0.00,0.00,VWS V14.01,2013-03-22 01:32:00,
2013-03-21 21:35:00,65.2,54.0,29.95,East,92,0.0,0.0,67,0.00,,CLR,0.00,0.00,VWS V14.01,2013-03-22 01:35:00,
2013-03-21 21:37:00,64.9,54.1,29.95,East,92,0.0,0.0,68,0.00,,CLR,0.00,0.00,VWS V14.01,2013-03-22 01:37:00,
2013-03-21 21:40:00,64.8,54.0,29.95,East,92,0.0,0.0,68,0.00,,CLR,0.00,0.00,VWS V14.01,2013-03-22 01:40:00,
2013-03-21 21:42:00,64.6,53.8,29.95,East,92,0.0,0.0,68,0.00,,CLR,0.00,0.00,VWS V14.01,2013-03-22 01:42:00,
2013-03-21 21:45:00,64.5,54.1,29.95,East,92,0.0,0.0,69,0.00,,CLR,0.00,0.00,VWS V14.01,2013-03-22 01:45:00,
2013-03-21 21:47:00,64.4,54.4,29.95,East,92,0.0,0.0,70,0.00,,CLR,0.00,0.00,VWS V14.01,2013-03-22 01:47:00,
2013-03-21 21:50:00,64.3,54.3,29.95,East,92,0.0,0.0,70,0.00,,CLR,0.00,0.00,VWS V14.01,2013-03-22 01:50:00,
2013-03-21 21:52:00,64.1,54.5,29.96,East,92,0.0,0.0,71,0.00,,CLR,0.00,0.00,VWS V14.01,2013-03-22 01:52:00,
2013-03-21 21:55:00,64.0,54.0,29.96,East,92,0.0,0.0,70,0.00,,CLR,0.00,0.00,VWS V14.01,2013-03-22 01:55:00,
2013-03-21 21:57:00,63.9,54.3,29.96,East,92,0.0,0.0,71,0.00,,CLR,0.00,0.00,VWS V14.01,2013-03-22 01:57:00,
2013-03-21 22:00:00,63.8,54.2,29.96,East,92,0.0,0.0,71,0.00,,CLR,0.00,0.00,VWS V14.01,2013-03-22 02:00:00,
2013-03-21 22:02:00,63.6,54.0,29.96,East,92,0.0,0.0,71,0.00,,CLR,0.00,0.00,VWS V14.01,2013-03-22 02:02:00,
2013-03-21 22:05:00,63.6,54.0,29.96,East,92,0.0,0.0,71,0.00,,CLR,0.00,0.00,VWS V14.01,2013-03-22 02:05:00,
2013-03-21 22:07:00,63.5,54.3,29.96,East,92,0.0,0.0,72,0.00,,CLR,0.00,0.00,VWS V14.01,2013-03-22 02:07:00,
2013-03-21 22:10:00,63.4,54.2,29.96,East,92,0.0,0.0,72,0.00,,CLR,0.00,0.00,VWS V14.01,2013-03-22 02:10:00,
2013-03-21 22:12:00,63.4,54.2,29.96,East,92,0.0,0.0,72,0.00,,CLR,0.00,0.00,VWS V14.01,2013-03-22 02:12:00,
2013-03-21 22:15:00,63.3,54.1,29.96,East,92,0.0,0.0,72,0.00,,CLR,0.00,0.00,VWS V14.01,2013-03-22 02:15:00,
2013-03-21 22:17:00,63.2,54.0,29.96,East,92,0.0,0.0,72,0.00,,CLR,0.00,0.00,VWS V14.01,2013-03-22 02:17:00,
2013-03-21 22:20:00,63.2,54.4,29.96,East,92,0.0,0.0,73,0.00,,CLR,0.00,0.00,VWS V14.01,2013-03-22 02:20:00,
2013-03-21 22:22:00,63.0,54.2,29.96,East,92,0.0,0.0,73,0.00,,CLR,0.00,0.00,VWS V14.01,2013-03-22 02:22:00,
2013-03-21 22:25:00,63.0,54.2,29.96,East,92,0.0,0.0,73,0.00,,CLR,0.00,0.00,VWS V14.01,2013-03-22 02:25:00,
2013-03-21 22:27:00,63.0,54.2,29.96,East,92,0.0,0.0,73,0.00,,CLR,0.00,0.00,VWS V14.01,2013-03-22 02:27:00,
2013-03-21 22:30:00,62.9,54.1,29.96,East,92,0.0,0.0,73,0.00,,CLR,0.00,0.00,VWS V14.01,2013-03-22 02:30:00,
2013-03-21 22:32:00,62.8,54.4,29.96,East,92,0.0,0.0,74,0.00,,CLR,0.00,0.00,VWS V14.01,2013-03-22 02:32:00,
2013-03-21 22:35:00,62.8,54.0,29.96,East,92,0.0,0.0,73,0.00,,CLR,0.00,0.00,VWS V14.01,2013-03-22 02:35:00,
2013-03-21 22:37:00,62.8,54.4,29.96,East,92,0.0,0.0,74,0.00,,CLR,0.00,0.00,VWS V14.01,2013-03-22 02:37:00,
2013-03-21 22:40:00,62.7,54.3,29.96,East,92,0.0,0.0,74,0.00,,CLR,0.00,0.00,VWS V14.01,2013-03-22 02:40:00,
2013-03-21 22:42:00,62.7,54.3,29.96,East,92,0.0,0.0,74,0.00,,CLR,0.00,0.00,VWS V14.01,2013-03-22 02:42:00,
2013-03-21 22:45:00,62.6,54.2,29.96,East,92,0.0,0.0,74,0.00,,CLR,0.00,0.00,VWS V14.01,2013-03-22 02:45:00,
2013-03-21 22:47:00,62.5,54.1,29.96,East,92,0.0,0.0,74,0.00,,CLR,0.00,0.00,VWS V14.01,2013-03-22 02:47:00,
2013-03-21 22:50:00,62.4,54.0,29.96,East,92,0.0,0.0,74,0.00,,CLR,0.00,0.00,VWS V14.01,2013-03-22 02:50:00,
2013-03-21 22:52:00,62.3,53.9,29.96,East,92,0.0,0.0,74,0.00,,CLR,0.00,0.00,VWS V14.01,2013-03-22 02:52:00,
2013-03-21 22:55:00,62.3,53.9,29.96,East,92,0.0,0.0,74,0.00,,CLR,0.00,0.00,VWS V14.01,2013-03-22 02:55:00,
2013-03-21 22:58:00,62.2,53.8,29.96,East,92,0.0,0.0,74,0.00,,CLR,0.00,0.00,VWS V14.01,2013-03-22 02:58:00,
2013-03-21 23:00:00,62.2,53.8,29.96,East,92,0.0,0.0,74,0.00,,CLR,0.00,0.00,VWS V14.01,2013-03-22 03:00:00,
2013-03-21 23:03:00,62.1,53.7,29.96,East,92,0.0,0.0,74,0.00,,CLR,0.00,0.00,VWS V14.01,2013-03-22 03:03:00,
2013-03-21 23:05:00,62.1,53.7,29.96,East,92,0.0,0.0,74,0.00,,CLR,0.00,0.00,VWS V14.01,2013-03-22 03:05:00,
2013-03-21 23:08:00,62.0,53.6,29.96,East,92,0.0,0.0,74,0.00,,CLR,0.00,0.00,VWS V14.01,2013-03-22 03:08:00,
2013-03-21 23:10:00,62.0,54.0,29.96,East,94,0.0,1.0,75,0.00,,CLR,0.00,0.00,VWS V14.01,2013-03-22 03:10:00,
2013-03-21 23:13:00,61.8,53.8,29.96,East,94,0.0,0.0,75,0.00,,CLR,0.00,0.00,VWS V14.01,2013-03-22 03:13:00,
2013-03-21 23:15:00,61.8,53.8,29.96,East,94,0.0,0.0,75,0.00,,CLR,0.00,0.00,VWS V14.01,2013-03-22 03:15:00,
2013-03-21 23:18:00,61.8,54.2,29.96,East,94,0.0,0.0,76,0.00,,CLR,0.00,0.00,VWS V14.01,2013-03-22 03:18:00,
2013-03-21 23:20:00,61.8,54.2,29.96,East,94,0.0,0.0,76,0.00,,CLR,0.00,0.00,VWS V14.01,2013-03-22 03:20:00,
2013-03-21 23:23:00,61.7,54.1,29.96,East,94,0.0,0.0,76,0.00,,CLR,0.00,0.00,VWS V14.01,2013-03-22 03:23:00,
2013-03-21 23:25:00,61.7,54.1,29.96,East,94,0.0,0.0,76,0.00,,CLR,0.00,0.00,VWS V14.01,2013-03-22 03:25:00,
2013-03-21 23:28:00,61.5,53.9,29.96,East,94,0.0,0.0,76,0.00,,CLR,0.00,0.00,VWS V14.01,2013-03-22 03:28:00,
2013-03-21 23:30:00,61.5,53.9,29.96,East,94,0.0,0.0,76,0.00,,CLR,0.00,0.00,VWS V14.01,2013-03-22 03:30:00,
2013-03-21 23:33:00,61.4,53.8,29.96,East,94,0.0,0.0,76,0.00,,CLR,0.00,0.00,VWS V14.01,2013-03-22 03:33:00,
2013-03-21 23:35:00,61.3,54.0,29.96,East,94,0.0,0.0,77,0.00,,CLR,0.00,0.00,VWS V14.01,2013-03-22 03:35:00,
2013-03-21 23:38:00,61.3,54.0,29.96,East,94,0.0,0.0,77,0.00,,CLR,0.00,0.00,VWS V14.01,2013-03-22 03:38:00,
2013-03-21 23:40:00,61.3,54.0,29.96,East,94,0.0,0.0,77,0.00,,CLR,0.00,0.00,VWS V14.01,2013-03-22 03:40:00,
2013-03-21 23:43:00,61.3,54.0,29.96,East,94,0.0,0.0,77,0.00,,CLR,0.00,0.00,VWS V14.01,2013-03-22 03:43:00,
2013-03-21 23:45:00,61.3,54.0,29.96,East,94,0.0,0.0,77,0.00,,CLR,0.00,0.00,VWS V14.01,2013-03-22 03:45:00,
2013-03-21 23:48:00,61.2,53.9,29.96,East,94,0.0,0.0,77,0.00,,CLR,0.00,0.00,VWS V14.01,2013-03-22 03:48:00,
2013-03-21 23:50:00,61.2,53.9,29.96,East,94,0.0,0.0,77,0.00,,CLR,0.00,0.00,VWS V14.01,2013-03-22 03:50:00,
2013-03-21 23:53:00,61.1,53.8,29.96,East,94,0.0,0.0,77,0.00,,CLR,0.00,0.00,VWS V14.01,2013-03-22 03:53:00,
2013-03-21 23:55:00,61.1,53.8,29.96,East,94,0.0,0.0,77,0.00,,CLR,0.00,0.00,VWS V14.01,2013-03-22 03:55:00,
2013-03-21 23:58:00,61.1,53.8,29.96,East,94,0.0,0.0,77,0.00,,CLR,0.00,0.00,VWS V14.01,2013-03-22 03:58:00,